Location: Ward Pound Ridge Reservation
(41.2500°N, 73.6000°W)
Time: 12:48:14
(UTC-04:00)

Envisat - Pass Details

Date: 07 October 2017
Orbit: 764 x 766 km, 98.2° (Epoch: 18 October)

Event Time Altitude Azimuth Distance (km) Brightness Sun altitude
Exits shadow 19:38:11 21° 85° (E) 1,656 4.1 -14.4°
Maximum altitude 19:39:21 23° 65° (ENE) 1,578 4.1 -14.6°
Drops below altitude 10° 19:43:18 10° 14° (NNE) 2,310 5.4 -15.4°
Sets 19:46:00 0° 1° (N) 3,240 6.3 -15.9°
